Flag for U.S.A. Weather past 2 weeks in Key West, Florida, U.S.A.

Now
87 °F

Passing clouds.


Feels Like: 100 °F
Forecast: 83 / 89 °F
Wind: 8 mph from Southeast

Location: Key West International Airport

Current Time: Jul 2, 2015 at 7:43:11 PM

Latest Report: Jul 2, 2015 at 6:53 PM


Visibility: 10 mi

Pressure: 30.05 "Hg

Humidity: 75%

Dew point: 78 °F

Location of Key WestLocation

Historic Weather in Key West — Graph

°F

Key West temperature yesterday

Maximum temperature yesterday: 91 °F (at 12:53 PM)
Minimum temperature yesterday: 84 °F (at 1:53 AM)
Average temperature yesterday: 87 °F

Past Weeks' High & Low Weather Summary

 TemperatureHumidityPressure
High94 °F (Jun 30, 2:53 PM)88% (Jun 29, 6:53 AM)30.16 "Hg (Jun 29, 6:53 AM)
Low80 °F (Jun 21, 6:53 AM)58% (Jun 30, 1:53 PM)30.02 "Hg (Jul 2, 5:53 PM)
Average85 °F74%30.09 "Hg
* Reported Jun 17 5:53 PM — Jul 2 5:53 PM, Key West, Weather by CustomWeather, © 2015

Note: Actual official high and low records may vary slightly from our data, if they occured in-between our weather recording intervals... More about our weather records

Advertising

Key West weather history for previous 24 hours

 ConditionsComfort  
Time TempWeatherWind HumidityBarometerVisibility
5:53 PM
Thu, Jul 2
88 °FSunny.10 mph70%30.02 "Hg10 mi
4:53 PM90 °FSunny.12 mph61%30.04 "Hg10 mi
3:53 PM90 °FSunny.12 mph68%30.05 "Hg10 mi
2:53 PM90 °FSunny.12 mph66%30.08 "Hg10 mi
1:53 PM89 °FSunny.12 mph65%30.10 "Hg10 mi
12:53 PM90 °FSunny.12 mph61%30.11 "Hg10 mi
11:53 AM89 °FSunny.8 mph68%30.12 "Hg10 mi
10:53 AM89 °FSunny.12 mph65%30.11 "Hg10 mi
9:53 AM87 °FSunny.12 mph72%30.10 "Hg10 mi
8:53 AM86 °FPassing clouds.12 mph72%30.09 "Hg10 mi
7:53 AM85 °FBroken clouds.14 mph77%30.07 "Hg10 mi
6:53 AM84 °FPassing clouds.13 mph80%30.06 "Hg10 mi
5:53 AM84 °FPassing clouds.14 mph80%30.05 "Hg10 mi
4:53 AM84 °FPassing clouds.12 mph80%30.05 "Hg10 mi
3:53 AM84 °FPassing clouds.14 mph80%30.05 "Hg10 mi
2:53 AM84 °FPassing clouds.15 mph80%30.06 "Hg10 mi
1:53 AM84 °FClear.16 mph80%30.08 "Hg10 mi
12:53 AM84 °FClear.13 mph77%30.10 "Hg10 mi
11:53 PM
Wed, Jul 1
85 °FPassing clouds.13 mph75%30.13 "Hg10 mi
10:53 PM85 °FClear.14 mph77%30.12 "Hg10 mi
9:53 PM85 °FClear.13 mph75%30.09 "Hg10 mi
8:53 PM86 °FSunny.10 mph75%30.10 "Hg10 mi
7:53 PM86 °FSunny.9 mph72%30.09 "Hg10 mi
Weather by CustomWeather, © 2015

See weather overviewHow to use our weather pages